This is the latest recevied weather packets stored in our database for station/object N7IGG. If no packets are shown the sender has not sent any weather packets the latest 10 day(s).
| Time | Temp. | Humidity | Pressure | Rain* | Wind** | Luminosity | Snow |
|---|---|---|---|---|---|---|---|
| 1777854885 | 22.78° C | 55% | 1009.9 hPa | 0 mm | - | 291 W/m² | - |
| 1777854582 | 22.78° C | 55% | 1009.9 hPa | 0 mm | - | 341 W/m² | - |
| 1777854279 | 22.78° C | 55% | 1010 hPa | 0 mm | - | 278 W/m² | - |
| 1777853976 | 22.78° C | 56% | 1009.8 hPa | 0 mm | - | 382 W/m² | - |
| 1777853673 | 23.33° C | 54% | 1010 hPa | 0 mm | - | 400 W/m² | - |
| 1777853370 | 22.22° C | 57% | 1010.2 hPa | 0 mm | - | 424 W/m² | - |
| 1777853067 | 22.22° C | 57% | 1010.1 hPa | 0 mm | - | 426 W/m² | - |
| 1777852764 | 22.22° C | 57% | 1010.1 hPa | 0 mm | - | 421 W/m² | - |
| 1777852462 | 20° C | 62% | 1010.1 hPa | 0 mm | - | 334 W/m² | - |
| 1777852159 | 22.78° C | 56% | 1010.3 hPa | 0 mm | - | 423 W/m² | - |
| 1777851857 | 22.22° C | 58% | 1010.2 hPa | 0 mm | - | 432 W/m² | - |
| 1777851555 | 22.22° C | 56% | 1010.4 hPa | 0 mm | - | 434 W/m² | - |
| 1777851251 | 22.22° C | 56% | 1010.5 hPa | 0 mm | - | 438 W/m² | - |
| 1777850947 | 23.33° C | 53% | 1010.6 hPa | 0 mm | - | 436 W/m² | - |
| 1777850645 | 25.56° C | 47% | 1010.4 hPa | 0 mm | - | 476 W/m² | - |
| 1777850342 | 25.56° C | 48% | 1010.5 hPa | 0 mm | - | 497 W/m² | - |
| 1777850039 | 25.56° C | 48% | 1010.6 hPa | 0 mm | - | 515 W/m² | - |
| 1777849735 | 24.44° C | 48% | 1010.8 hPa | 0 mm | - | 537 W/m² | - |
| 1777849432 | 25° C | 49% | 1010.7 hPa | 0 mm | - | 504 W/m² | - |
| 1777849130 | 25° C | 48% | 1010.9 hPa | 0 mm | - | 565 W/m² | - |
| 1777848825 | 25° C | 49% | 1010.8 hPa | 0 mm | - | 558 W/m² | - |
| 1777848522 | 25° C | 45% | 1011 hPa | 0 mm | - | 561 W/m² | - |
| 1777848219 | 24.44° C | 45% | 1011.1 hPa | 0 mm | - | 581 W/m² | - |
| 1777847917 | 24.44° C | 45% | 1011.2 hPa | 0 mm | - | 423 W/m² | - |
| 1777847614 | 23.33° C | 50% | 1011.2 hPa | 0 mm | - | 346 W/m² | - |
* Rain latest hour (hover to see other rain measurements)
** Current wind speed in m/s (hover to see current wind gust speed)